DAL900 KBOS-KATL

Flight info

Callsign DAL900
Flight time N/A
Altitude 34000
Route BLZZR6 BLZZR DCT BAF Q448 PTW J48 MOL DCT FLASK OZZZI2
Aircraft A321/M-SDE3FGHIRWY/LB1

Departure

Time 2026-05-08 01:55
Airport Boston Logan International Airport (KBOS)

Arrival

Time N/A
Airport Hartsfield Jackson Atlanta International Airport (KATL)
Time Latitude Longitude Altitude Speed Heading
2026-05-08 01:08 42.36097 -71.02425 26 ft 0 kts 308°
2026-05-08 01:37 42.36091 -71.02415 27 ft 4 kts 308°
2026-05-08 01:37 42.36076 -71.02389 29 ft 4 kts 294°
2026-05-08 01:37 42.36075 -71.02360 29 ft 4 kts 232°
2026-05-08 01:37 42.36095 -71.02340 31 ft 4 kts 190°
2026-05-08 01:38 42.36118 -71.02345 28 ft 4 kts 154°
2026-05-08 01:38 42.36143 -71.02353 30 ft 4 kts 183°
2026-05-08 01:38 42.36167 -71.02350 30 ft 2 kts 184°
2026-05-08 01:38 42.36188 -71.02349 28 ft 1 kts 184°
2026-05-08 01:41 42.36182 -71.02349 30 ft 4 kts 184°
2026-05-08 01:41 42.36131 -71.02348 29 ft 8 kts 166°
2026-05-08 01:42 42.36066 -71.02305 25 ft 12 kts 150°
2026-05-08 01:42 42.36019 -71.02227 29 ft 10 kts 121°
2026-05-08 01:42 42.35983 -71.02146 28 ft 10 kts 121°
2026-05-08 01:42 42.35936 -71.02040 28 ft 17 kts 121°
2026-05-08 01:43 42.35876 -71.01905 25 ft 16 kts 120°
2026-05-08 01:43 42.35844 -71.01773 28 ft 14 kts 102°
2026-05-08 01:43 42.35826 -71.01655 27 ft 10 kts 102°
2026-05-08 01:43 42.35833 -71.01583 27 ft 7 kts 44°
2026-05-08 01:44 42.35880 -71.01554 28 ft 9 kts 21°
2026-05-08 01:44 42.35961 -71.01515 25 ft 15 kts 20°
2026-05-08 01:44 42.36057 -71.01468 27 ft 14 kts 19°
2026-05-08 01:44 42.36145 -71.01426 25 ft 13 kts 20°
2026-05-08 01:45 42.36225 -71.01387 27 ft 12 kts 19°
2026-05-08 01:45 42.36295 -71.01354 27 ft 10 kts 19°
2026-05-08 01:45 42.36318 -71.01290 27 ft 7 kts 102°
2026-05-08 01:45 42.36298 -71.01234 29 ft 7 kts 119°
2026-05-08 01:46 42.36269 -71.01169 28 ft 11 kts 121°
2026-05-08 01:46 42.36227 -71.01047 29 ft 15 kts 114°
2026-05-08 01:46 42.36186 -71.00925 27 ft 13 kts 114°
2026-05-08 01:46 42.36151 -71.00818 28 ft 12 kts 114°
2026-05-08 01:47 42.36121 -71.00723 26 ft 11 kts 109°
2026-05-08 01:47 42.36087 -71.00589 28 ft 19 kts 109°
2026-05-08 01:47 42.36040 -71.00404 28 ft 21 kts 109°
2026-05-08 01:48 42.35943 -71.00074 26 ft 17 kts 128°
2026-05-08 01:48 42.35869 -70.99967 26 ft 15 kts 134°
2026-05-08 01:48 42.35801 -70.99875 25 ft 14 kts 136°
2026-05-08 01:48 42.35725 -70.99773 27 ft 19 kts 135°
2026-05-08 01:49 42.35618 -70.99631 28 ft 21 kts 135°
2026-05-08 01:49 42.35536 -70.99521 25 ft 11 kts 135°
2026-05-08 01:49 42.35508 -70.99484 25 ft 0 kts 131°
2026-05-08 01:50 42.35501 -70.99471 28 ft 5 kts 124°
2026-05-08 01:50 42.35490 -70.99402 25 ft 7 kts 84°
2026-05-08 01:51 42.35492 -70.99388 25 ft 0 kts 77°
2026-05-08 01:52 42.35493 -70.99384 25 ft 3 kts 77°
2026-05-08 01:52 42.35514 -70.99292 25 ft 9 kts 58°
2026-05-08 01:53 42.35559 -70.99294 25 ft 7 kts 319°
2026-05-08 01:53 42.35569 -70.99306 25 ft 0 kts 317°
2026-05-08 01:54 42.35586 -70.99328 29 ft 14 kts 315°
2026-05-08 01:54 42.35848 -70.99679 26 ft 86 kts 315°
2026-05-08 01:55 42.36405 -71.00426 27 ft 137 kts 315°
2026-05-08 01:55 42.37176 -71.01464 72 ft 170 kts 314°
2026-05-08 01:55 42.38015 -71.02568 686 ft 165 kts 314°
2026-05-08 01:55 42.38659 -71.03839 1288 ft 165 kts 295°
2026-05-08 01:56 42.39208 -71.05191 1901 ft 165 kts 301°
2026-05-08 01:56 42.39819 -71.06595 2096 ft 182 kts 300°
2026-05-08 01:56 42.40468 -71.08149 2305 ft 198 kts 300°
2026-05-08 01:56 42.41126 -71.09907 2343 ft 226 kts 285°
2026-05-08 01:57 42.41057 -71.12093 2776 ft 243 kts 257°
2026-05-08 01:57 42.40449 -71.14282 3433 ft 252 kts 251°
2026-05-08 01:57 42.39764 -71.16496 4110 ft 258 kts 249°
2026-05-08 01:57 42.39051 -71.18718 4944 ft 258 kts 249°
2026-05-08 01:58 42.38332 -71.20974 5612 ft 263 kts 249°
2026-05-08 01:58 42.37638 -71.23280 6344 ft 265 kts 251°
2026-05-08 01:58 42.36978 -71.25591 7167 ft 262 kts 252°
2026-05-08 01:58 42.36329 -71.27908 7843 ft 266 kts 251°
2026-05-08 01:59 42.35679 -71.30247 8616 ft 265 kts 252°
2026-05-08 01:59 42.35035 -71.32599 9306 ft 269 kts 252°
2026-05-08 01:59 42.34393 -71.34961 10052 ft 267 kts 252°
2026-05-08 01:59 42.33709 -71.37385 10293 ft 287 kts 250°
2026-05-08 02:00 42.32931 -71.39972 10413 ft 307 kts 249°
2026-05-08 02:00 42.32089 -71.42686 10556 ft 325 kts 249°
2026-05-08 02:00 42.31196 -71.45537 11031 ft 332 kts 249°
2026-05-08 02:00 42.30293 -71.48416 11670 ft 333 kts 248°
2026-05-08 02:01 42.29392 -71.51297 12371 ft 333 kts 248°
2026-05-08 02:01 42.28496 -71.54177 13083 ft 333 kts 248°
2026-05-08 02:01 42.28310 -71.54778 13241 ft 333 kts 248°
2026-05-08 02:01 42.27699 -71.56754 13737 ft 333 kts 248°
2026-05-08 02:02 42.26806 -71.59663 14338 ft 333 kts 248°
2026-05-08 02:02 42.25913 -71.62554 14959 ft 333 kts 248°
2026-05-08 02:02 42.25021 -71.65438 15580 ft 332 kts 247°
2026-05-08 02:02 42.24133 -71.68301 16188 ft 332 kts 246°
2026-05-08 02:03 42.23241 -71.71170 16810 ft 331 kts 246°
2026-05-08 02:03 42.22352 -71.74038 17391 ft 331 kts 247°
2026-05-08 02:03 42.21721 -71.77037 17961 ft 334 kts 257°
2026-05-08 02:03 42.21504 -71.80172 18459 ft 337 kts 261°
2026-05-08 02:04 42.21340 -71.83336 18898 ft 339 kts 261°
2026-05-08 02:04 42.21169 -71.86520 19316 ft 341 kts 261°
2026-05-08 02:04 42.20994 -71.89711 19740 ft 342 kts 261°
2026-05-08 02:04 42.20816 -71.92917 20177 ft 344 kts 261°
2026-05-08 02:05 42.20635 -71.96149 20575 ft 346 kts 261°
2026-05-08 02:05 42.20452 -71.99391 20991 ft 348 kts 261°
2026-05-08 02:05 42.20269 -72.02647 21404 ft 349 kts 261°
2026-05-08 02:05 42.20084 -72.05926 21772 ft 351 kts 261°
2026-05-08 02:06 42.19900 -72.09220 22175 ft 353 kts 261°
2026-05-08 02:06 42.19714 -72.12529 22564 ft 355 kts 261°
2026-05-08 02:06 42.19525 -72.15851 22949 ft 357 kts 261°
2026-05-08 02:06 42.19333 -72.19200 23338 ft 358 kts 261°
2026-05-08 02:07 42.19137 -72.22554 23679 ft 360 kts 261°
2026-05-08 02:07 42.18941 -72.25924 24046 ft 361 kts 261°
2026-05-08 02:07 42.18745 -72.29294 24439 ft 360 kts 261°
2026-05-08 02:07 42.18548 -72.32655 24804 ft 360 kts 261°
2026-05-08 02:08 42.18348 -72.36026 25144 ft 361 kts 261°
2026-05-08 02:08 42.18147 -72.39401 25471 ft 362 kts 261°
2026-05-08 02:08 42.17947 -72.42745 25786 ft 363 kts 261°
2026-05-08 02:08 42.17743 -72.46187 26111 ft 364 kts 261°
2026-05-08 02:09 42.17610 -72.48436 26326 ft 365 kts 261°
2026-05-08 02:09 42.17406 -72.51844 26632 ft 365 kts 261°
2026-05-08 02:09 42.17198 -72.55263 26928 ft 366 kts 261°
2026-05-08 02:09 42.16987 -72.58692 27211 ft 367 kts 262°
2026-05-08 02:10 42.16774 -72.62129 27576 ft 368 kts 262°
2026-05-08 02:10 42.16564 -72.65559 27906 ft 368 kts 262°
2026-05-08 02:10 42.16225 -72.68967 28190 ft 366 kts 255°
2026-05-08 02:10 42.15408 -72.72206 28463 ft 366 kts 245°
2026-05-08 02:11 42.14112 -72.75167 28737 ft 369 kts 236°
2026-05-08 02:11 42.12525 -72.77878 29093 ft 368 kts 235°
2026-05-08 02:11 42.10940 -72.80581 29422 ft 367 kts 235°
2026-05-08 02:11 42.09364 -72.83279 29761 ft 366 kts 236°
2026-05-08 02:12 42.07797 -72.85965 30078 ft 364 kts 236°
2026-05-08 02:12 42.06233 -72.88645 30340 ft 364 kts 236°
2026-05-08 02:12 42.04672 -72.91317 30591 ft 364 kts 236°
2026-05-08 02:12 42.03105 -72.93992 30830 ft 364 kts 236°
2026-05-08 02:13 42.01530 -72.96669 31141 ft 364 kts 235°
2026-05-08 02:13 41.99964 -72.99331 31420 ft 363 kts 235°
2026-05-08 02:13 41.98398 -73.01999 31700 ft 363 kts 235°
2026-05-08 02:13 41.96832 -73.04652 31940 ft 363 kts 234°
2026-05-08 02:14 41.95039 -73.07079 32097 ft 370 kts 225°
2026-05-08 02:14 41.92904 -73.09074 32308 ft 377 kts 220°
2026-05-08 02:14 41.90676 -73.10941 32555 ft 378 kts 219°
2026-05-08 02:14 41.88446 -73.12806 32790 ft 378 kts 219°
2026-05-08 02:15 41.86215 -73.14670 33032 ft 378 kts 219°
2026-05-08 02:15 41.83983 -73.16538 33288 ft 378 kts 219°
2026-05-08 02:15 41.81782 -73.18383 33516 ft 378 kts 219°
2026-05-08 02:15 41.79526 -73.20276 33761 ft 378 kts 219°
2026-05-08 02:16 41.75071 -73.24011 33896 ft 377 kts 220°
2026-05-08 02:16 41.70632 -73.27723 33901 ft 376 kts 220°
2026-05-08 02:17 41.66262 -73.31529 33904 ft 371 kts 226°
2026-05-08 02:17 41.62789 -73.36418 33903 ft 364 kts 234°
2026-05-08 02:18 41.59468 -73.41533 33893 ft 365 kts 234°
2026-05-08 02:18 41.56142 -73.46638 33895 ft 364 kts 234°
2026-05-08 02:19 41.52813 -73.51740 33885 ft 364 kts 233°
2026-05-08 02:19 41.49476 -73.56839 33887 ft 365 kts 233°
2026-05-08 02:20 41.46132 -73.61936 33911 ft 365 kts 233°
2026-05-08 02:20 41.42792 -73.67032 33903 ft 365 kts 234°
2026-05-08 02:21 41.39449 -73.72123 33901 ft 365 kts 233°
2026-05-08 02:21 41.36683 -73.76333 33894 ft 365 kts 234°
2026-05-08 02:22 41.33340 -73.81419 33883 ft 365 kts 233°
2026-05-08 02:22 41.29949 -73.86450 33875 ft 366 kts 233°
2026-05-08 02:23 41.26530 -73.91457 33817 ft 365 kts 233°
2026-05-08 02:23 41.23120 -73.96459 33866 ft 365 kts 233°
2026-05-08 02:24 41.19717 -74.01472 33902 ft 365 kts 233°
2026-05-08 02:24 41.16303 -74.06472 33887 ft 366 kts 233°
2026-05-08 02:25 41.12915 -74.11495 33895 ft 365 kts 234°
2026-05-08 02:25 41.09708 -74.16698 33873 ft 364 kts 236°
2026-05-08 02:26 41.06550 -74.21933 33873 ft 364 kts 236°
2026-05-08 02:26 41.03382 -74.27103 33889 ft 364 kts 236°
2026-05-08 02:27 41.00171 -74.32278 33900 ft 364 kts 236°
2026-05-08 02:27 40.96957 -74.37448 33910 ft 364 kts 235°
2026-05-08 02:28 40.93740 -74.42630 33899 ft 365 kts 235°
2026-05-08 02:28 40.90518 -74.47819 33868 ft 365 kts 236°
2026-05-08 02:29 40.87290 -74.53000 33900 ft 365 kts 236°
2026-05-08 02:29 40.84059 -74.58175 33892 ft 365 kts 236°
2026-05-08 02:30 40.80821 -74.63346 33897 ft 365 kts 235°
2026-05-08 02:30 40.77579 -74.68506 33883 ft 365 kts 236°
2026-05-08 02:31 40.74343 -74.73662 33846 ft 364 kts 236°
2026-05-08 02:31 40.71107 -74.78824 33874 ft 365 kts 236°
2026-05-08 02:32 40.67860 -74.83979 33884 ft 365 kts 236°
2026-05-08 02:32 40.64613 -74.89127 33887 ft 365 kts 236°
2026-05-08 02:33 40.61390 -74.94227 33887 ft 365 kts 236°
2026-05-08 02:33 40.58141 -74.99353 33889 ft 365 kts 236°
2026-05-08 02:34 40.54895 -75.04478 33864 ft 364 kts 236°
2026-05-08 02:34 40.51658 -75.09603 33902 ft 364 kts 236°
2026-05-08 02:35 40.48424 -75.14738 33908 ft 365 kts 236°
2026-05-08 02:35 40.45190 -75.19872 33913 ft 365 kts 236°
2026-05-08 02:36 40.41955 -75.24998 33914 ft 365 kts 236°
2026-05-08 02:36 40.38709 -75.30118 33877 ft 364 kts 237°
2026-05-08 02:37 40.35471 -75.35222 33900 ft 363 kts 237°
2026-05-08 02:37 40.32241 -75.40308 33909 ft 363 kts 237°
2026-05-08 02:38 40.29014 -75.45382 33940 ft 363 kts 236°
2026-05-08 02:38 40.25781 -75.50450 33930 ft 363 kts 236°
2026-05-08 02:39 40.22537 -75.55525 33924 ft 363 kts 238°
2026-05-08 02:39 40.19753 -75.60941 33905 ft 358 kts 242°
2026-05-08 02:40 40.17023 -75.66386 33918 ft 358 kts 242°
2026-05-08 02:40 40.14289 -75.71812 33917 ft 357 kts 242°
2026-05-08 02:41 40.11556 -75.77229 33913 ft 357 kts 242°
2026-05-08 02:41 40.08819 -75.82638 33924 ft 357 kts 242°
2026-05-08 02:42 40.06080 -75.88065 33927 ft 358 kts 242°
2026-05-08 02:42 40.03341 -75.93481 33883 ft 356 kts 242°
2026-05-08 02:43 40.00612 -75.98848 33872 ft 354 kts 242°
2026-05-08 02:43 39.97907 -76.04155 33881 ft 354 kts 242°
2026-05-08 02:44 39.95172 -76.09526 33889 ft 354 kts 242°
2026-05-08 02:44 39.92449 -76.14857 33918 ft 354 kts 242°
2026-05-08 02:45 39.89742 -76.20159 33899 ft 354 kts 242°
2026-05-08 02:45 39.86995 -76.25530 33889 ft 354 kts 242°
2026-05-08 02:46 39.84267 -76.30840 33888 ft 355 kts 242°
2026-05-08 02:46 39.81522 -76.36186 33890 ft 355 kts 242°
2026-05-08 02:47 39.78774 -76.41526 33893 ft 356 kts 242°
2026-05-08 02:47 39.76021 -76.46869 33896 ft 355 kts 242°
2026-05-08 02:48 39.73269 -76.52198 33935 ft 356 kts 242°
2026-05-08 02:48 39.70509 -76.57532 33923 ft 356 kts 242°
2026-05-08 02:49 39.67742 -76.62869 33874 ft 356 kts 242°
2026-05-08 02:49 39.64980 -76.68184 33901 ft 355 kts 242°
2026-05-08 02:50 39.62219 -76.73486 33910 ft 354 kts 242°
2026-05-08 02:50 39.59462 -76.78779 33912 ft 354 kts 242°
2026-05-08 02:51 39.56704 -76.84062 33929 ft 354 kts 242°
2026-05-08 02:51 39.53947 -76.89348 33970 ft 354 kts 243°
2026-05-08 02:52 39.51187 -76.94628 33886 ft 354 kts 243°
2026-05-08 02:52 39.47969 -76.99482 33922 ft 368 kts 230°
2026-05-08 02:53 39.43997 -77.03658 33941 ft 368 kts 229°
2026-05-08 02:53 39.40032 -77.07817 33948 ft 367 kts 229°
2026-05-08 02:54 39.36714 -77.11296 33967 ft 366 kts 230°
2026-05-08 02:54 39.32766 -77.15449 33964 ft 366 kts 230°
2026-05-08 02:55 39.26853 -77.21663 33941 ft 365 kts 230°
2026-05-08 02:56 39.22914 -77.25786 33978 ft 364 kts 230°
2026-05-08 02:56 39.18975 -77.29894 33978 ft 364 kts 230°
2026-05-08 02:57 39.15037 -77.33993 33976 ft 364 kts 230°
2026-05-08 02:57 39.11128 -77.38060 33900 ft 363 kts 231°
2026-05-08 02:58 39.07190 -77.42150 33964 ft 361 kts 231°
2026-05-08 02:58 39.03312 -77.46182 33952 ft 360 kts 231°
2026-05-08 02:59 38.99392 -77.50244 33952 ft 360 kts 231°
2026-05-08 02:59 38.95521 -77.54249 33951 ft 359 kts 231°
2026-05-08 03:00 38.91633 -77.58275 33984 ft 359 kts 231°
2026-05-08 03:00 38.87746 -77.62288 33941 ft 358 kts 231°
2026-05-08 03:01 38.83864 -77.66289 33967 ft 357 kts 231°
2026-05-08 03:01 38.79985 -77.70274 33966 ft 357 kts 231°
2026-05-08 03:02 38.76100 -77.74259 33965 ft 357 kts 231°
2026-05-08 03:02 38.72223 -77.78243 33964 ft 357 kts 231°
2026-05-08 03:03 38.68340 -77.82227 33945 ft 358 kts 231°
2026-05-08 03:03 38.64494 -77.86261 33987 ft 351 kts 236°
2026-05-08 03:03 38.62919 -77.88570 33994 ft 340 kts 243°
2026-05-08 03:04 38.61508 -77.90996 33998 ft 340 kts 243°
2026-05-08 03:04 38.58679 -77.95837 34006 ft 340 kts 243°
2026-05-08 03:05 38.55839 -78.00666 33992 ft 340 kts 242°
2026-05-08 03:05 38.52994 -78.05490 33988 ft 340 kts 242°
2026-05-08 03:06 38.50156 -78.10311 33940 ft 339 kts 243°
2026-05-08 03:06 38.47320 -78.15124 33950 ft 340 kts 243°
2026-05-08 03:07 38.44470 -78.19940 33951 ft 340 kts 243°
2026-05-08 03:07 38.41622 -78.24754 33952 ft 340 kts 243°
2026-05-08 03:08 38.38777 -78.29562 33953 ft 340 kts 243°
2026-05-08 03:08 38.35926 -78.34363 33955 ft 340 kts 243°
2026-05-08 03:09 38.33067 -78.39161 33965 ft 340 kts 243°
2026-05-08 03:09 38.30209 -78.43958 33953 ft 340 kts 243°
2026-05-08 03:10 38.27347 -78.48758 33975 ft 340 kts 243°
2026-05-08 03:10 38.24490 -78.53543 33982 ft 339 kts 243°
2026-05-08 03:11 38.21638 -78.58316 33983 ft 339 kts 243°
2026-05-08 03:11 38.18785 -78.63075 33979 ft 338 kts 243°
2026-05-08 03:12 38.15958 -78.67792 33983 ft 338 kts 243°
2026-05-08 03:12 38.13089 -78.72578 33988 ft 338 kts 243°
2026-05-08 03:13 38.10252 -78.77293 33969 ft 338 kts 243°
2026-05-08 03:13 38.07375 -78.82060 33982 ft 337 kts 243°
2026-05-08 03:14 38.04528 -78.86779 33989 ft 336 kts 243°
2026-05-08 03:14 38.01683 -78.91482 33987 ft 336 kts 243°
2026-05-08 03:15 37.98859 -78.96150 33981 ft 335 kts 243°
2026-05-08 03:15 37.96026 -79.00834 33979 ft 335 kts 243°
2026-05-08 03:16 37.93187 -79.05517 33983 ft 335 kts 243°
2026-05-08 03:16 37.90341 -79.10204 34004 ft 336 kts 243°
2026-05-08 03:17 37.87286 -79.14749 34017 ft 341 kts 239°
2026-05-08 03:17 37.84044 -79.19171 34029 ft 343 kts 239°
2026-05-08 03:18 37.80795 -79.23589 34035 ft 342 kts 239°
2026-05-08 03:18 37.77586 -79.28022 34041 ft 342 kts 239°
2026-05-08 03:19 37.74382 -79.32468 34048 ft 342 kts 239°
2026-05-08 03:19 37.71179 -79.36917 34047 ft 342 kts 239°
2026-05-08 03:20 37.67984 -79.41335 34035 ft 340 kts 240°
2026-05-08 03:20 37.64805 -79.45732 34040 ft 338 kts 240°
2026-05-08 03:21 37.61634 -79.50114 34026 ft 338 kts 240°
2026-05-08 03:21 37.58467 -79.54486 34012 ft 337 kts 240°
2026-05-08 03:22 37.55315 -79.58823 34004 ft 337 kts 239°
2026-05-08 03:22 37.52140 -79.63169 33985 ft 337 kts 240°
2026-05-08 03:23 37.48969 -79.67513 33950 ft 337 kts 240°
2026-05-08 03:23 37.45808 -79.71849 33977 ft 336 kts 240°
2026-05-08 03:24 37.42650 -79.76174 33993 ft 336 kts 240°
2026-05-08 03:24 37.39495 -79.80497 34001 ft 335 kts 240°
2026-05-08 03:25 37.36333 -79.84820 34004 ft 336 kts 240°
2026-05-08 03:25 37.33167 -79.89133 34013 ft 336 kts 240°
2026-05-08 03:26 37.29997 -79.93447 34015 ft 336 kts 240°
2026-05-08 03:26 37.26822 -79.97762 34010 ft 337 kts 240°
2026-05-08 03:27 37.23642 -80.02092 34011 ft 337 kts 240°
2026-05-08 03:27 37.20456 -80.06407 34022 ft 337 kts 240°
2026-05-08 03:28 37.17268 -80.10715 34025 ft 336 kts 240°
2026-05-08 03:28 37.14086 -80.15018 34034 ft 337 kts 240°
2026-05-08 03:29 37.10907 -80.19324 34037 ft 336 kts 240°
2026-05-08 03:29 37.07731 -80.23621 34037 ft 336 kts 240°
2026-05-08 03:30 37.02958 -80.30039 34020 ft 337 kts 240°
2026-05-08 03:31 36.96411 -80.38553 34021 ft 339 kts 239°
2026-05-08 03:32 36.91443 -80.44856 34014 ft 339 kts 239°
2026-05-08 03:32 36.88163 -80.49038 34009 ft 339 kts 239°